Time,TemperatureF,DewpointF,PressureIn,WindDirection,WindDirectionDegrees,WindSpeedMPH,WindSpeedGustMPH,Humidity,HourlyPrecipIn,Conditions,Clouds,dailyrainin,SolarRadiationWatts/m^2,SoftwareType,DateUTC
2013-10-21 00:01:00,43.2,42.4,29.68,ENE,67,2.0,4.0,97,0.12,,,0.21,0.0,meteohub,2013-10-21 04:01:00,
2013-10-21 00:02:00,43.2,42.4,29.67,ESE,105,4.0,4.0,97,0.12,,,0.21,0.0,meteohub,2013-10-21 04:02:00,
2013-10-21 00:03:00,43.2,42.4,29.67,ESE,120,0.0,4.0,97,0.12,,,0.21,0.0,meteohub,2013-10-21 04:03:00,
2013-10-21 00:08:00,43.2,42.4,29.67,ENE,74,3.0,5.0,97,0.14,,,0.23,0.0,meteohub,2013-10-21 04:08:00,
2013-10-21 00:13:00,43.0,42.3,29.67,ESE,109,1.0,7.0,97,0.12,,,0.23,0.0,meteohub,2013-10-21 04:13:00,
2013-10-21 00:18:00,43.0,42.3,29.66,East,90,5.0,7.0,97,0.12,,,0.24,0.0,meteohub,2013-10-21 04:18:00,
2013-10-21 00:23:00,43.0,42.3,29.66,ESE,119,2.0,9.0,97,0.12,,,0.25,0.0,meteohub,2013-10-21 04:23:00,
2013-10-21 00:29:00,43.0,42.3,29.66,SE,138,1.0,9.0,97,0.12,,,0.26,0.0,meteohub,2013-10-21 04:29:00,
2013-10-21 00:34:00,43.0,42.3,29.66,WNW,290,0.0,9.0,97,0.12,,,0.27,0.0,meteohub,2013-10-21 04:34:00,
2013-10-21 00:39:00,43.0,42.3,29.66,East,94,0.0,5.0,97,0.11,,,0.28,0.0,meteohub,2013-10-21 04:39:00,
2013-10-21 00:44:00,43.0,42.3,29.65,East,90,3.0,5.0,97,0.11,,,0.29,0.0,meteohub,2013-10-21 04:44:00,
2013-10-21 00:49:00,43.0,42.3,29.65,South,188,1.0,5.0,97,0.11,,,0.30,0.0,meteohub,2013-10-21 04:49:00,
2013-10-21 00:54:00,43.0,42.3,29.65,South,190,4.0,5.0,97,0.12,,,0.32,0.0,meteohub,2013-10-21 04:54:00,
2013-10-21 00:59:00,43.0,42.3,29.65,ESE,123,2.0,5.0,97,0.11,,,0.32,0.0,meteohub,2013-10-21 04:59:00,
2013-10-21 01:04:00,43.0,42.3,29.64,SSW,206,0.0,7.0,97,0.12,,,0.33,0.0,meteohub,2013-10-21 05:04:00,
2013-10-21 01:09:00,43.2,42.4,29.64,SSE,165,1.0,7.0,97,0.11,,,0.34,0.0,meteohub,2013-10-21 05:09:00,
2013-10-21 01:14:00,43.2,42.4,29.63,NE,40,3.0,7.0,97,0.10,,,0.34,0.0,meteohub,2013-10-21 05:14:00,
2013-10-21 01:19:00,43.3,42.6,29.63,SW,217,2.0,7.0,97,0.10,,,0.35,0.0,meteohub,2013-10-21 05:19:00,
2013-10-21 01:24:00,43.3,42.8,29.63,SSW,196,3.0,6.0,98,0.11,,,0.35,0.0,meteohub,2013-10-21 05:24:00,
2013-10-21 01:29:00,43.5,43.0,29.62,SE,141,3.0,7.0,98,0.10,,,0.36,0.0,meteohub,2013-10-21 05:29:00,
2013-10-21 01:34:00,43.5,43.0,29.62,SSE,166,2.0,7.0,98,0.09,,,0.36,0.0,meteohub,2013-10-21 05:34:00,
2013-10-21 01:39:00,43.7,43.2,29.62,ESE,113,1.0,7.0,98,0.08,,,0.36,0.0,meteohub,2013-10-21 05:39:00,
2013-10-21 01:44:00,43.9,43.3,29.61,SSE,157,3.0,7.0,98,0.08,,,0.37,0.0,meteohub,2013-10-21 05:44:00,
2013-10-21 01:49:00,43.9,43.3,29.61,SSW,201,2.0,7.0,98,0.06,,,0.37,0.0,meteohub,2013-10-21 05:49:00,
2013-10-21 01:54:00,43.9,43.3,29.61,SE,137,2.0,7.0,98,0.05,,,0.37,0.0,meteohub,2013-10-21 05:54:00,
2013-10-21 01:59:00,43.9,43.3,29.61,SE,132,4.0,7.0,98,0.04,,,0.37,0.0,meteohub,2013-10-21 05:59:00,
2013-10-21 02:04:00,43.9,43.3,29.61,South,178,2.0,7.0,98,0.04,,,0.37,0.0,meteohub,2013-10-21 06:04:00,
2013-10-21 02:09:00,44.1,43.5,29.61,ENE,68,4.0,5.0,98,0.03,,,0.37,0.0,meteohub,2013-10-21 06:09:00,
2013-10-21 02:14:00,44.1,43.5,29.61,SSW,195,4.0,5.0,98,0.02,,,0.37,0.0,meteohub,2013-10-21 06:14:00,
2013-10-21 02:19:00,44.1,43.5,29.61,SW,227,3.0,6.0,98,0.02,,,0.37,0.0,meteohub,2013-10-21 06:19:00,
2013-10-21 02:24:00,44.1,43.5,29.61,SSE,165,4.0,9.0,98,0.01,,,0.37,0.0,meteohub,2013-10-21 06:24:00,
2013-10-21 02:29:00,44.2,43.7,29.61,South,184,1.0,9.0,98,0.02,,,0.38,0.0,meteohub,2013-10-21 06:29:00,
2013-10-21 02:34:00,44.2,43.7,29.61,South,174,1.0,9.0,98,0.02,,,0.38,0.0,meteohub,2013-10-21 06:34:00,
2013-10-21 02:40:00,44.2,43.7,29.61,SW,221,4.0,8.0,98,0.01,,,0.38,0.0,meteohub,2013-10-21 06:40:00,
2013-10-21 02:45:00,44.4,43.9,29.60,South,185,2.0,6.0,98,0.01,,,0.38,0.0,meteohub,2013-10-21 06:45:00,
2013-10-21 02:50:00,44.6,44.1,29.60,South,174,4.0,6.0,98,0.01,,,0.38,0.0,meteohub,2013-10-21 06:50:00,
2013-10-21 02:55:00,44.8,44.2,29.60,South,179,2.0,6.0,98,0.01,,,0.38,0.0,meteohub,2013-10-21 06:55:00,
2013-10-21 03:00:00,44.8,44.2,29.60,SSW,196,4.0,6.0,98,0.01,,,0.38,0.0,meteohub,2013-10-21 07:00:00,
2013-10-21 03:05:00,45.0,44.4,29.60,South,180,3.0,5.0,98,0.01,,,0.38,0.0,meteohub,2013-10-21 07:05:00,
2013-10-21 03:10:00,45.0,44.4,29.60,SSW,200,3.0,5.0,98,0.01,,,0.38,0.0,meteohub,2013-10-21 07:10:00,
2013-10-21 03:15:00,45.0,44.4,29.60,SSE,148,4.0,5.0,98,0.01,,,0.38,0.0,meteohub,2013-10-21 07:15:00,
2013-10-21 03:20:00,45.1,44.6,29.60,SSW,209,3.0,6.0,98,0.01,,,0.38,0.0,meteohub,2013-10-21 07:20:00,
2013-10-21 03:25:00,45.3,44.8,29.60,West,269,2.0,7.0,98,0.00,,,0.38,0.0,meteohub,2013-10-21 07:25:00,
2013-10-21 03:30:00,45.3,44.8,29.60,SW,220,3.0,7.0,98,0.00,,,0.38,0.0,meteohub,2013-10-21 07:30:00,
2013-10-21 03:35:00,45.7,45.1,29.60,SW,234,2.0,7.0,98,0.00,,,0.38,0.0,meteohub,2013-10-21 07:35:00,
2013-10-21 03:40:00,45.9,45.3,29.60,SW,220,3.0,5.0,98,0.00,,,0.38,0.0,meteohub,2013-10-21 07:40:00,
2013-10-21 03:45:00,46.0,45.5,29.60,NW,305,4.0,5.0,98,0.00,,,0.38,0.0,meteohub,2013-10-21 07:45:00,
2013-10-21 03:50:00,46.2,45.7,29.60,SSW,197,1.0,6.0,98,0.00,,,0.38,0.0,meteohub,2013-10-21 07:50:00,
2013-10-21 03:55:00,46.2,45.7,29.60,South,188,3.0,6.0,98,0.00,,,0.38,0.0,meteohub,2013-10-21 07:55:00,
2013-10-21 04:00:00,46.6,46.0,29.59,South,188,2.0,6.0,98,0.00,,,0.38,0.0,meteohub,2013-10-21 08:00:00,
2013-10-21 04:05:00,46.8,46.2,29.59,SW,223,1.0,7.0,98,0.00,,,0.38,0.0,meteohub,2013-10-21 08:05:00,
2013-10-21 04:10:00,46.8,46.2,29.59,WSW,246,3.0,7.0,98,0.00,,,0.38,0.0,meteohub,2013-10-21 08:10:00,
2013-10-21 04:15:00,46.9,46.4,29.59,SSW,192,1.0,7.0,98,0.00,,,0.38,0.0,meteohub,2013-10-21 08:15:00,
2013-10-21 04:20:00,47.1,46.6,29.59,South,182,2.0,7.0,98,0.00,,,0.38,0.0,meteohub,2013-10-21 08:20:00,
2013-10-21 04:25:00,47.1,46.6,29.59,SSW,206,2.0,7.0,98,0.00,,,0.38,0.0,meteohub,2013-10-21 08:25:00,
2013-10-21 04:30:00,47.3,46.6,29.59,South,172,1.0,7.0,97,0.00,,,0.38,0.0,meteohub,2013-10-21 08:30:00,
2013-10-21 04:35:00,47.3,46.6,29.59,South,178,2.0,7.0,97,0.00,,,0.38,0.0,meteohub,2013-10-21 08:35:00,
2013-10-21 04:40:00,47.1,46.4,29.59,SW,215,1.0,5.0,97,0.00,,,0.38,0.0,meteohub,2013-10-21 08:40:00,
2013-10-21 04:45:00,47.1,46.4,29.59,SSW,200,1.0,5.0,97,0.00,,,0.38,0.0,meteohub,2013-10-21 08:45:00,
2013-10-21 04:50:00,47.1,46.4,29.59,SSW,194,1.0,6.0,97,0.00,,,0.38,0.0,meteohub,2013-10-21 08:50:00,
2013-10-21 04:55:00,47.3,46.6,29.59,South,182,2.0,6.0,97,0.00,,,0.38,0.0,meteohub,2013-10-21 08:55:00,
2013-10-21 05:00:00,47.3,46.6,29.59,South,172,4.0,6.0,97,0.00,,,0.38,0.0,meteohub,2013-10-21 09:00:00,
2013-10-21 05:06:00,47.3,46.6,29.59,WSW,242,4.0,6.0,97,0.00,,,0.38,0.0,meteohub,2013-10-21 09:06:00,
2013-10-21 05:11:00,47.3,46.6,29.59,South,175,5.0,9.0,97,0.00,,,0.38,0.0,meteohub,2013-10-21 09:11:00,
2013-10-21 05:16:00,47.3,46.6,29.58,SSW,203,3.0,6.0,97,0.00,,,0.38,0.0,meteohub,2013-10-21 09:16:00,
2013-10-21 05:21:00,47.3,46.6,29.58,SSW,200,6.0,7.0,97,0.00,,,0.38,0.0,meteohub,2013-10-21 09:21:00,
2013-10-21 05:26:00,47.3,46.6,29.58,SSW,201,5.0,10.0,97,0.00,,,0.38,0.0,meteohub,2013-10-21 09:26:00,
2013-10-21 05:31:00,47.3,46.2,29.58,SW,217,4.0,10.0,96,0.00,,,0.38,0.0,meteohub,2013-10-21 09:31:00,
2013-10-21 05:36:00,47.3,46.2,29.58,SSW,213,2.0,10.0,96,0.00,,,0.38,0.0,meteohub,2013-10-21 09:36:00,
2013-10-21 05:41:00,47.3,46.2,29.58,SW,215,2.0,7.0,96,0.00,,,0.38,0.0,meteohub,2013-10-21 09:41:00,
2013-10-21 05:46:00,47.3,46.2,29.58,WSW,247,3.0,7.0,96,0.00,,,0.38,0.0,meteohub,2013-10-21 09:46:00,
2013-10-21 05:51:00,47.5,46.4,29.58,SW,234,5.0,7.0,96,0.00,,,0.38,0.0,meteohub,2013-10-21 09:51:00,
2013-10-21 05:56:00,47.5,46.4,29.58,South,181,6.0,7.0,96,0.00,,,0.38,0.0,meteohub,2013-10-21 09:56:00,
2013-10-21 06:01:00,47.5,46.4,29.58,WSW,249,3.0,7.0,96,0.01,,,0.39,0.0,meteohub,2013-10-21 10:01:00,
2013-10-21 06:06:00,47.5,46.4,29.58,SSE,159,3.0,9.0,96,0.03,,,0.41,0.0,meteohub,2013-10-21 10:06:00,
2013-10-21 06:11:00,47.5,46.8,29.58,South,188,3.0,9.0,97,0.03,,,0.41,0.0,meteohub,2013-10-21 10:11:00,
2013-10-21 06:16:00,47.3,46.6,29.58,SSW,206,4.0,9.0,97,0.03,,,0.41,0.0,meteohub,2013-10-21 10:16:00,
2013-10-21 06:21:00,47.3,46.6,29.58,SSW,205,1.0,9.0,97,0.04,,,0.42,0.0,meteohub,2013-10-21 10:21:00,
2013-10-21 06:26:00,47.1,46.4,29.57,SW,220,6.0,9.0,97,0.04,,,0.42,0.0,meteohub,2013-10-21 10:26:00,
2013-10-21 06:31:00,47.1,46.4,29.57,SW,217,4.0,7.0,97,0.05,,,0.43,0.0,meteohub,2013-10-21 10:31:00,
2013-10-21 06:36:00,47.1,46.4,29.57,SSE,151,2.0,7.0,97,0.05,,,0.43,0.0,meteohub,2013-10-21 10:36:00,
2013-10-21 06:41:00,47.1,46.4,29.57,SW,219,2.0,8.0,97,0.05,,,0.43,0.0,meteohub,2013-10-21 10:41:00,
2013-10-21 06:46:00,47.1,46.4,29.58,WSW,244,6.0,9.0,97,0.05,,,0.43,0.0,meteohub,2013-10-21 10:46:00,
2013-10-21 06:51:00,47.3,46.6,29.57,South,186,3.0,9.0,97,0.05,,,0.43,0.0,meteohub,2013-10-21 10:51:00,
2013-10-21 06:56:00,47.3,46.6,29.57,SSW,199,3.0,9.0,97,0.05,,,0.43,0.0,meteohub,2013-10-21 10:56:00,
2013-10-21 07:02:00,47.3,46.8,29.57,SSE,164,1.0,9.0,98,0.03,,,0.43,0.0,meteohub,2013-10-21 11:02:00,
2013-10-21 07:07:00,47.5,46.9,29.57,SW,221,17.0,17.0,98,0.03,,,0.44,0.0,meteohub,2013-10-21 11:07:00,
2013-10-21 07:12:00,47.8,47.3,29.57,SW,234,3.0,21.0,98,0.04,,,0.45,0.0,meteohub,2013-10-21 11:12:00,
2013-10-21 07:17:00,48.2,47.7,29.58,West,261,2.0,21.0,98,0.04,,,0.46,0.0,meteohub,2013-10-21 11:17:00,
2013-10-21 07:22:00,48.2,47.3,29.58,West,277,3.0,21.0,97,0.06,,,0.47,0.0,meteohub,2013-10-21 11:22:00,
2013-10-21 07:27:00,48.0,47.1,29.58,WSW,254,2.0,14.0,97,0.06,,,0.49,0.0,meteohub,2013-10-21 11:27:00,
2013-10-21 07:32:00,47.8,46.9,29.58,SW,232,1.0,14.0,97,0.07,,,0.50,0.0,meteohub,2013-10-21 11:32:00,
2013-10-21 07:37:00,47.7,46.9,29.58,ENE,61,1.0,9.0,97,0.07,,,0.50,0.0,meteohub,2013-10-21 11:37:00,
2013-10-21 07:42:00,47.7,46.6,29.58,SW,229,0.0,9.0,96,0.07,,,0.50,0.0,meteohub,2013-10-21 11:42:00,
2013-10-21 07:47:00,47.5,46.8,29.59,SW,224,3.0,7.0,97,0.07,,,0.50,0.0,meteohub,2013-10-21 11:47:00,
2013-10-21 07:52:00,47.5,46.8,29.59,West,266,2.0,7.0,97,0.07,,,0.50,0.0,meteohub,2013-10-21 11:52:00,
2013-10-21 07:57:00,47.3,46.6,29.59,NW,304,0.0,6.0,97,0.07,,,0.50,0.0,meteohub,2013-10-21 11:57:00,
2013-10-21 08:02:00,47.3,46.6,29.60,NW,304,0.0,6.0,97,0.07,,,0.50,0.0,meteohub,2013-10-21 12:02:00,
2013-10-21 08:07:00,47.1,46.4,29.60,WNW,293,0.0,4.0,97,0.06,,,0.50,0.0,meteohub,2013-10-21 12:07:00,
2013-10-21 08:12:00,46.9,46.2,29.60,West,275,2.0,3.0,97,0.05,,,0.51,0.0,meteohub,2013-10-21 12:12:00,
2013-10-21 08:17:00,46.6,45.9,29.61,WSW,248,1.0,2.0,97,0.04,,,0.51,0.0,meteohub,2013-10-21 12:17:00,
2013-10-21 08:22:00,46.4,45.7,29.61,NW,306,0.0,3.0,97,0.03,,,0.51,0.0,meteohub,2013-10-21 12:22:00,
2013-10-21 08:27:00,46.2,45.5,29.61,NW,309,2.0,5.0,97,0.02,,,0.51,5.0,meteohub,2013-10-21 12:27:00,
2013-10-21 08:32:00,46.0,45.3,29.61,WSW,250,0.0,5.0,97,0.01,,,0.51,7.0,meteohub,2013-10-21 12:32:00,
2013-10-21 08:37:00,45.9,45.1,29.61,SW,232,1.0,5.0,97,0.01,,,0.51,7.0,meteohub,2013-10-21 12:37:00,
2013-10-21 08:42:00,45.9,45.1,29.61,WNW,292,1.0,4.0,97,0.01,,,0.51,9.0,meteohub,2013-10-21 12:42:00,
2013-10-21 08:47:00,45.9,45.1,29.61,WNW,292,0.0,4.0,97,0.01,,,0.51,21.0,meteohub,2013-10-21 12:47:00,
2013-10-21 08:52:00,45.7,45.0,29.62,WSW,253,2.0,4.0,97,0.01,,,0.51,26.0,meteohub,2013-10-21 12:52:00,
2013-10-21 08:57:00,45.7,45.0,29.62,SW,219,0.0,6.0,97,0.02,,,0.52,14.0,meteohub,2013-10-21 12:57:00,
2013-10-21 09:02:00,45.7,45.0,29.62,SW,229,1.0,6.0,97,0.02,,,0.52,25.0,meteohub,2013-10-21 13:02:00,
2013-10-21 09:07:00,45.7,45.0,29.62,WNW,284,1.0,7.0,97,0.02,,,0.52,40.0,meteohub,2013-10-21 13:07:00,
2013-10-21 09:12:00,45.7,45.0,29.62,WSW,240,2.0,7.0,97,0.01,,,0.52,28.0,meteohub,2013-10-21 13:12:00,
2013-10-21 09:17:00,45.7,45.0,29.62,WSW,243,8.0,8.0,97,0.01,,,0.52,62.0,meteohub,2013-10-21 13:17:00,
2013-10-21 09:22:00,45.7,44.6,29.62,WSW,254,2.0,8.0,96,0.01,,,0.52,44.0,meteohub,2013-10-21 13:22:00,
2013-10-21 09:27:00,45.7,44.6,29.62,West,279,2.0,9.0,96,0.01,,,0.52,46.0,meteohub,2013-10-21 13:27:00,
2013-10-21 09:32:00,45.9,44.4,29.63,SW,229,3.0,9.0,95,0.01,,,0.52,26.0,meteohub,2013-10-21 13:32:00,
2013-10-21 09:37:00,45.9,44.8,29.63,WNW,286,1.0,9.0,96,0.01,,,0.52,51.0,meteohub,2013-10-21 13:37:00,
2013-10-21 09:42:00,45.7,44.6,29.64,West,263,2.0,9.0,96,0.01,,,0.52,11.0,meteohub,2013-10-21 13:42:00,
2013-10-21 09:47:00,45.7,44.6,29.64,WNW,284,2.0,12.0,96,0.02,,,0.53,33.0,meteohub,2013-10-21 13:47:00,
2013-10-21 09:52:00,45.1,43.9,29.64,West,267,0.0,12.0,95,0.02,,,0.53,44.0,meteohub,2013-10-21 13:52:00,
2013-10-21 09:57:00,44.8,43.5,29.64,NNW,334,1.0,12.0,95,0.01,,,0.53,49.0,meteohub,2013-10-21 13:57:00,
2013-10-21 10:02:00,44.6,43.3,29.65,WNW,293,3.0,6.0,95,0.01,,,0.53,77.0,meteohub,2013-10-21 14:02:00,
2013-10-21 10:07:00,44.4,43.2,29.65,South,186,3.0,7.0,95,0.01,,,0.53,42.0,meteohub,2013-10-21 14:07:00,
2013-10-21 10:12:00,44.2,43.0,29.65,WSW,242,5.0,7.0,95,0.01,,,0.53,62.0,meteohub,2013-10-21 14:12:00,
2013-10-21 10:17:00,44.1,42.8,29.65,WNW,283,3.0,7.0,95,0.01,,,0.53,93.0,meteohub,2013-10-21 14:17:00,
2013-10-21 10:22:00,44.2,43.2,29.65,WSW,252,0.0,7.0,96,0.01,,,0.53,63.0,meteohub,2013-10-21 14:22:00,
2013-10-21 10:27:00,44.2,43.2,29.65,SW,219,2.0,7.0,96,0.01,,,0.53,77.0,meteohub,2013-10-21 14:27:00,
2013-10-21 10:32:00,44.1,43.0,29.65,NNW,327,1.0,5.0,96,0.02,,,0.54,70.0,meteohub,2013-10-21 14:32:00,
2013-10-21 10:37:00,44.1,42.8,29.65,SW,234,5.0,5.0,95,0.02,,,0.54,77.0,meteohub,2013-10-21 14:37:00,
2013-10-21 10:42:00,44.1,42.8,29.65,WSW,244,1.0,5.0,95,0.02,,,0.54,98.0,meteohub,2013-10-21 14:42:00,
2013-10-21 10:47:00,44.1,42.8,29.65,West,264,1.0,8.0,95,0.01,,,0.54,105.0,meteohub,2013-10-21 14:47:00,
2013-10-21 10:52:00,44.1,43.0,29.65,SW,220,4.0,9.0,96,0.01,,,0.54,130.0,meteohub,2013-10-21 14:52:00,
2013-10-21 10:57:00,44.1,42.8,29.66,South,186,1.0,9.0,95,0.01,,,0.54,234.0,meteohub,2013-10-21 14:57:00,
2013-10-21 11:02:00,44.4,43.3,29.66,SSW,204,4.0,8.0,96,0.01,,,0.54,179.0,meteohub,2013-10-21 15:02:00,
2013-10-21 11:07:00,44.8,43.5,29.66,WSW,247,1.0,8.0,95,0.01,,,0.54,149.0,meteohub,2013-10-21 15:07:00,
2013-10-21 11:12:00,44.8,43.2,29.66,WSW,251,0.0,8.0,94,0.01,,,0.54,239.0,meteohub,2013-10-21 15:12:00,
2013-10-21 11:17:00,45.0,43.0,29.66,SW,224,3.0,8.0,93,0.01,,,0.54,176.0,meteohub,2013-10-21 15:17:00,
2013-10-21 11:22:00,44.8,42.6,29.66,West,280,2.0,8.0,92,0.01,,,0.54,186.0,meteohub,2013-10-21 15:22:00,
2013-10-21 11:27:00,46.0,44.4,29.66,WSW,237,1.0,9.0,94,0.00,,,0.54,693.0,meteohub,2013-10-21 15:27:00,
2013-10-21 11:32:00,46.2,44.1,29.66,WNW,282,1.0,9.0,92,0.00,,,0.54,253.0,meteohub,2013-10-21 15:32:00,
2013-10-21 11:37:00,46.2,43.7,29.67,WNW,292,0.0,9.0,91,0.00,,,0.54,111.0,meteohub,2013-10-21 15:37:00,
2013-10-21 11:42:00,46.0,43.5,29.67,West,279,1.0,8.0,91,0.00,,,0.54,123.0,meteohub,2013-10-21 15:42:00,
2013-10-21 11:47:00,45.5,42.4,29.67,SW,230,2.0,10.0,89,0.00,,,0.54,113.0,meteohub,2013-10-21 15:47:00,
2013-10-21 11:52:00,45.1,42.6,29.67,SSW,194,4.0,10.0,91,0.00,,,0.54,190.0,meteohub,2013-10-21 15:52:00,
2013-10-21 11:57:00,44.8,42.6,29.67,West,269,1.0,10.0,92,0.00,,,0.54,211.0,meteohub,2013-10-21 15:57:00,
2013-10-21 12:02:00,45.9,43.9,29.67,West,277,1.0,10.0,93,0.00,,,0.54,220.0,meteohub,2013-10-21 16:02:00,
2013-10-21 12:07:00,45.9,43.2,29.67,NW,314,0.0,10.0,90,0.00,,,0.54,192.0,meteohub,2013-10-21 16:07:00,
2013-10-21 12:12:00,45.5,42.4,29.67,West,263,5.0,7.0,89,0.00,,,0.54,125.0,meteohub,2013-10-21 16:12:00,
2013-10-21 12:17:00,45.1,42.6,29.67,NW,304,1.0,8.0,91,0.00,,,0.54,104.0,meteohub,2013-10-21 16:17:00,
2013-10-21 12:22:00,44.8,42.3,29.67,West,273,1.0,8.0,91,0.00,,,0.54,70.0,meteohub,2013-10-21 16:22:00,
2013-10-21 12:27:00,44.4,42.3,29.67,WNW,295,2.0,8.0,92,0.01,,,0.55,95.0,meteohub,2013-10-21 16:27:00,
2013-10-21 12:32:00,44.1,42.1,29.67,WNW,293,2.0,8.0,93,0.01,,,0.55,128.0,meteohub,2013-10-21 16:32:00,
2013-10-21 12:37:00,43.9,42.3,29.67,WSW,242,1.0,4.0,94,0.01,,,0.55,155.0,meteohub,2013-10-21 16:37:00,
2013-10-21 12:42:00,44.1,42.4,29.68,West,261,4.0,7.0,94,0.01,,,0.55,160.0,meteohub,2013-10-21 16:42:00,
2013-10-21 12:47:00,44.2,42.6,29.68,SW,232,2.0,7.0,94,0.01,,,0.55,204.0,meteohub,2013-10-21 16:47:00,
2013-10-21 12:52:00,44.6,42.4,29.68,WSW,238,3.0,6.0,92,0.01,,,0.55,149.0,meteohub,2013-10-21 16:52:00,
2013-10-21 12:57:00,44.6,42.6,29.68,SW,217,7.0,7.0,93,0.01,,,0.55,211.0,meteohub,2013-10-21 16:57:00,
2013-10-21 13:02:00,44.8,42.8,29.68,WSW,247,6.0,9.0,93,0.01,,,0.55,192.0,meteohub,2013-10-21 17:02:00,
2013-10-21 13:07:00,44.6,42.6,29.68,SSW,200,6.0,9.0,93,0.01,,,0.55,183.0,meteohub,2013-10-21 17:07:00,
2013-10-21 13:12:00,44.2,42.1,29.67,West,279,2.0,9.0,92,0.01,,,0.55,302.0,meteohub,2013-10-21 17:12:00,
2013-10-21 13:17:00,44.8,43.2,29.67,SW,223,5.0,9.0,94,0.01,,,0.55,221.0,meteohub,2013-10-21 17:17:00,
2013-10-21 13:22:00,44.8,42.6,29.67,SW,228,3.0,10.0,92,0.00,,,0.55,320.0,meteohub,2013-10-21 17:22:00,
2013-10-21 13:27:00,45.3,43.7,29.67,West,279,1.0,10.0,94,0.00,,,0.55,301.0,meteohub,2013-10-21 17:27:00,
2013-10-21 13:32:00,45.1,42.1,29.68,SW,225,8.0,8.0,89,0.00,,,0.55,239.0,meteohub,2013-10-21 17:32:00,
2013-10-21 13:37:00,45.0,42.4,29.67,WSW,242,3.0,12.0,91,0.00,,,0.55,160.0,meteohub,2013-10-21 17:37:00,
2013-10-21 13:42:00,44.8,42.3,29.67,SW,224,2.0,12.0,91,0.00,,,0.55,127.0,meteohub,2013-10-21 17:42:00,
2013-10-21 13:47:00,44.2,42.1,29.67,SW,215,2.0,12.0,92,0.01,,,0.56,366.0,meteohub,2013-10-21 17:47:00,
2013-10-21 13:52:00,44.8,42.8,29.67,SW,222,4.0,9.0,93,0.01,,,0.56,167.0,meteohub,2013-10-21 17:52:00,
2013-10-21 13:57:00,44.6,42.4,29.67,West,262,1.0,10.0,92,0.01,,,0.56,149.0,meteohub,2013-10-21 17:57:00,
2013-10-21 14:02:00,44.6,42.6,29.67,SW,228,3.0,11.0,93,0.01,,,0.56,234.0,meteohub,2013-10-21 18:02:00,
2013-10-21 14:07:00,44.4,42.3,29.67,SW,234,3.0,11.0,92,0.01,,,0.56,169.0,meteohub,2013-10-21 18:07:00,
2013-10-21 14:12:00,44.2,41.7,29.67,SSW,212,2.0,11.0,91,0.01,,,0.56,276.0,meteohub,2013-10-21 18:12:00,
2013-10-21 14:17:00,45.3,43.2,29.66,West,279,2.0,9.0,92,0.01,,,0.56,237.0,meteohub,2013-10-21 18:17:00,
2013-10-21 14:22:00,45.9,43.7,29.66,SW,227,6.0,9.0,92,0.01,,,0.56,128.0,meteohub,2013-10-21 18:22:00,
2013-10-21 14:27:00,45.1,42.4,29.66,WNW,298,3.0,12.0,90,0.01,,,0.56,183.0,meteohub,2013-10-21 18:27:00,
2013-10-21 14:32:00,45.0,42.8,29.67,WSW,249,3.0,12.0,92,0.01,,,0.56,93.0,meteohub,2013-10-21 18:32:00,
2013-10-21 14:37:00,44.4,41.9,29.67,WNW,298,1.0,12.0,91,0.01,,,0.56,114.0,meteohub,2013-10-21 18:37:00,
2013-10-21 14:42:00,44.1,41.9,29.66,SSW,205,1.0,9.0,92,0.02,,,0.57,142.0,meteohub,2013-10-21 18:42:00,
2013-10-21 14:47:00,43.5,41.4,29.67,SSW,208,3.0,13.0,92,0.01,,,0.57,120.0,meteohub,2013-10-21 18:47:00,
2013-10-21 14:52:00,43.9,42.6,29.66,SSW,210,3.0,13.0,95,0.03,,,0.59,186.0,meteohub,2013-10-21 18:52:00,
2013-10-21 14:57:00,43.7,41.7,29.67,West,275,2.0,13.0,93,0.03,,,0.59,192.0,meteohub,2013-10-21 18:57:00,
2013-10-21 15:02:00,44.2,43.0,29.67,WNW,303,2.0,8.0,95,0.03,,,0.59,561.0,meteohub,2013-10-21 19:02:00,
2013-10-21 15:07:00,44.4,42.8,29.67,NW,325,2.0,9.0,94,0.03,,,0.59,288.0,meteohub,2013-10-21 19:07:00,
2013-10-21 15:12:00,45.0,43.3,29.66,WNW,296,2.0,9.0,94,0.03,,,0.59,362.0,meteohub,2013-10-21 19:12:00,
2013-10-21 15:17:00,44.4,41.9,29.66,NW,311,1.0,9.0,91,0.03,,,0.59,105.0,meteohub,2013-10-21 19:17:00,
2013-10-21 15:22:00,43.9,41.9,29.66,WNW,286,1.0,6.0,93,0.03,,,0.59,158.0,meteohub,2013-10-21 19:22:00,
2013-10-21 15:27:00,43.7,42.1,29.66,SW,223,0.0,6.0,94,0.03,,,0.59,97.0,meteohub,2013-10-21 19:27:00,
2013-10-21 15:32:00,43.5,41.7,29.66,SW,236,1.0,4.0,93,0.03,,,0.59,105.0,meteohub,2013-10-21 19:32:00,
2013-10-21 15:37:00,43.7,42.1,29.66,WSW,238,1.0,4.0,94,0.03,,,0.59,197.0,meteohub,2013-10-21 19:37:00,
2013-10-21 15:42:00,43.9,42.3,29.66,West,275,1.0,4.0,94,0.02,,,0.59,169.0,meteohub,2013-10-21 19:42:00,
2013-10-21 15:47:00,44.1,42.1,29.66,WNW,287,2.0,4.0,93,0.02,,,0.59,63.0,meteohub,2013-10-21 19:47:00,
2013-10-21 15:52:00,43.9,41.7,29.66,NW,319,3.0,4.0,92,0.00,,,0.59,56.0,meteohub,2013-10-21 19:52:00,
2013-10-21 15:57:00,43.9,41.9,29.67,WNW,282,1.0,4.0,93,0.00,,,0.59,79.0,meteohub,2013-10-21 19:57:00,
2013-10-21 16:02:00,43.5,41.7,29.67,West,271,1.0,7.0,93,0.01,,,0.60,93.0,meteohub,2013-10-21 20:02:00,
2013-10-21 16:07:00,43.2,41.4,29.67,SSW,200,4.0,7.0,93,0.01,,,0.60,56.0,meteohub,2013-10-21 20:07:00,
2013-10-21 16:12:00,42.8,41.2,29.67,WNW,289,1.0,9.0,94,0.02,,,0.61,121.0,meteohub,2013-10-21 20:12:00,
2013-10-21 16:17:00,42.6,41.0,29.67,WSW,245,1.0,9.0,94,0.02,,,0.61,40.0,meteohub,2013-10-21 20:17:00,
2013-10-21 16:22:00,42.3,40.6,29.67,SW,235,4.0,5.0,94,0.02,,,0.61,25.0,meteohub,2013-10-21 20:22:00,
2013-10-21 16:27:00,42.1,40.8,29.68,NW,306,2.0,8.0,95,0.03,,,0.62,62.0,meteohub,2013-10-21 20:27:00,
2013-10-21 16:32:00,41.5,39.9,29.68,WSW,249,2.0,10.0,94,0.04,,,0.63,83.0,meteohub,2013-10-21 20:32:00,
2013-10-21 16:37:00,41.2,39.6,29.68,SW,217,1.0,10.0,94,0.05,,,0.64,70.0,meteohub,2013-10-21 20:37:00,
2013-10-21 16:42:00,41.0,39.7,29.67,SW,219,3.0,10.0,95,0.06,,,0.65,204.0,meteohub,2013-10-21 20:42:00,
2013-10-21 16:47:00,41.2,39.9,29.67,West,273,2.0,11.0,95,0.06,,,0.65,149.0,meteohub,2013-10-21 20:47:00,
2013-10-21 16:52:00,41.2,39.9,29.68,SSW,202,3.0,11.0,95,0.06,,,0.65,76.0,meteohub,2013-10-21 20:52:00,
2013-10-21 16:57:00,41.2,39.9,29.68,WSW,238,1.0,11.0,95,0.06,,,0.65,76.0,meteohub,2013-10-21 20:57:00,
2013-10-21 17:02:00,41.2,39.9,29.67,SW,221,1.0,8.0,95,0.05,,,0.65,33.0,meteohub,2013-10-21 21:02:00,
2013-10-21 17:07:00,41.2,39.9,29.68,West,270,4.0,8.0,95,0.05,,,0.65,21.0,meteohub,2013-10-21 21:07:00,
2013-10-21 17:12:00,40.6,39.4,29.68,SSW,202,3.0,14.0,95,0.05,,,0.66,18.0,meteohub,2013-10-21 21:12:00,
2013-10-21 17:17:00,40.3,38.7,29.67,WSW,245,3.0,14.0,94,0.06,,,0.67,44.0,meteohub,2013-10-21 21:17:00,
2013-10-21 17:22:00,39.9,38.3,29.67,NW,319,0.0,14.0,94,0.07,,,0.68,214.0,meteohub,2013-10-21 21:22:00,
2013-10-21 17:27:00,40.1,38.8,29.67,WSW,242,1.0,12.0,95,0.06,,,0.68,67.0,meteohub,2013-10-21 21:27:00,
2013-10-21 17:32:00,40.3,39.0,29.67,SW,221,5.0,11.0,95,0.05,,,0.68,98.0,meteohub,2013-10-21 21:32:00,
2013-10-21 17:37:00,40.5,39.2,29.68,SSW,206,6.0,7.0,95,0.03,,,0.68,44.0,meteohub,2013-10-21 21:37:00,
2013-10-21 17:42:00,40.5,38.8,29.68,WNW,292,2.0,8.0,94,0.03,,,0.68,62.0,meteohub,2013-10-21 21:42:00,
2013-10-21 17:47:00,40.6,39.0,29.68,West,266,1.0,11.0,94,0.03,,,0.68,44.0,meteohub,2013-10-21 21:47:00,
2013-10-21 17:52:00,40.6,39.4,29.67,WSW,253,2.0,13.0,95,0.03,,,0.68,23.0,meteohub,2013-10-21 21:52:00,
2013-10-21 17:57:00,40.5,38.8,29.67,SW,214,1.0,13.0,94,0.03,,,0.68,25.0,meteohub,2013-10-21 21:57:00,
2013-10-21 18:02:00,40.5,39.2,29.68,West,262,1.0,9.0,95,0.03,,,0.68,25.0,meteohub,2013-10-21 22:02:00,
2013-10-21 18:07:00,40.3,39.0,29.68,West,275,0.0,9.0,95,0.03,,,0.68,14.0,meteohub,2013-10-21 22:07:00,
2013-10-21 18:12:00,40.3,39.2,29.68,WNW,295,1.0,4.0,96,0.01,,,0.68,9.0,meteohub,2013-10-21 22:12:00,
2013-10-21 18:17:00,40.3,39.2,29.68,SW,214,4.0,6.0,96,0.00,,,0.68,7.0,meteohub,2013-10-21 22:17:00,
2013-10-21 18:22:00,40.5,39.4,29.68,SW,214,1.0,6.0,96,0.00,,,0.68,0.0,meteohub,2013-10-21 22:22:00,
2013-10-21 18:27:00,40.5,39.4,29.68,SW,228,4.0,6.0,96,0.00,,,0.68,0.0,meteohub,2013-10-21 22:27:00,
2013-10-21 18:32:00,40.3,39.0,29.68,WSW,248,0.0,10.0,95,0.00,,,0.68,0.0,meteohub,2013-10-21 22:32:00,
2013-10-21 18:37:00,40.1,38.8,29.69,SW,217,3.0,10.0,95,0.02,,,0.70,0.0,meteohub,2013-10-21 22:37:00,
2013-10-21 18:42:00,39.6,38.3,29.69,WNW,288,2.0,10.0,95,0.02,,,0.70,0.0,meteohub,2013-10-21 22:42:00,
2013-10-21 18:47:00,39.0,37.8,29.69,West,280,1.0,21.0,95,0.05,,,0.73,0.0,meteohub,2013-10-21 22:47:00,
2013-10-21 18:52:00,38.8,37.8,29.69,WNW,301,1.0,21.0,96,0.05,,,0.73,0.0,meteohub,2013-10-21 22:52:00,
2013-10-21 18:57:00,38.8,37.8,29.69,West,267,2.0,8.0,96,0.05,,,0.73,0.0,meteohub,2013-10-21 22:57:00,
2013-10-21 19:02:00,38.8,37.8,29.70,SSW,207,3.0,10.0,96,0.05,,,0.73,0.0,meteohub,2013-10-21 23:02:00,
2013-10-21 19:07:00,38.8,37.8,29.70,West,281,2.0,10.0,96,0.06,,,0.74,0.0,meteohub,2013-10-21 23:07:00,
2013-10-21 19:12:00,38.8,37.8,29.70,WSW,252,2.0,10.0,96,0.06,,,0.74,0.0,meteohub,2013-10-21 23:12:00,
2013-10-21 19:17:00,38.8,37.8,29.70,SW,228,3.0,5.0,96,0.07,,,0.75,0.0,meteohub,2013-10-21 23:17:00,
2013-10-21 19:22:00,38.5,37.4,29.70,WNW,284,3.0,7.0,96,0.08,,,0.76,0.0,meteohub,2013-10-21 23:22:00,
2013-10-21 19:27:00,37.9,36.7,29.70,West,273,1.0,13.0,95,0.08,,,0.76,0.0,meteohub,2013-10-21 23:27:00,
2013-10-21 19:32:00,37.8,36.5,29.70,WNW,300,1.0,13.0,95,0.08,,,0.77,0.0,meteohub,2013-10-21 23:32:00,
2013-10-21 19:37:00,37.6,36.5,29.70,SW,229,0.0,13.0,96,0.07,,,0.77,0.0,meteohub,2013-10-21 23:37:00,
2013-10-21 19:42:00,37.4,36.3,29.71,WSW,237,1.0,7.0,96,0.04,,,0.77,0.0,meteohub,2013-10-21 23:42:00,
2013-10-21 19:47:00,37.4,36.3,29.71,WSW,237,0.0,2.0,96,0.04,,,0.77,0.0,meteohub,2013-10-21 23:47:00,
2013-10-21 19:52:00,37.4,36.7,29.70,WSW,257,2.0,2.0,97,0.04,,,0.77,0.0,meteohub,2013-10-21 23:52:00,
2013-10-21 19:57:00,37.4,36.7,29.70,SW,228,1.0,5.0,97,0.05,,,0.78,0.0,meteohub,2013-10-21 23:57:00,
2013-10-21 20:02:00,37.6,36.9,29.70,SW,225,3.0,5.0,97,0.05,,,0.78,0.0,meteohub,2013-10-22 00:02:00,
2013-10-21 20:07:00,37.8,37.0,29.71,SW,225,2.0,5.0,97,0.04,,,0.00,0.0,meteohub,2013-10-22 00:07:00,
2013-10-21 20:12:00,37.9,37.2,29.71,SSW,211,3.0,9.0,97,0.03,,,0.00,0.0,meteohub,2013-10-22 00:12:00,
2013-10-21 20:17:00,37.9,37.2,29.71,SW,227,3.0,12.0,97,0.04,,,0.01,0.0,meteohub,2013-10-22 00:17:00,
2013-10-21 20:22:00,37.8,36.7,29.71,SW,217,6.0,12.0,96,0.03,,,0.01,0.0,meteohub,2013-10-22 00:22:00,
2013-10-21 20:27:00,37.8,36.5,29.71,WSW,258,6.0,12.0,95,0.02,,,0.01,0.0,meteohub,2013-10-22 00:27:00,
2013-10-21 20:32:00,37.6,36.3,29.71,SW,229,3.0,16.0,95,0.02,,,0.01,0.0,meteohub,2013-10-22 00:32:00,
2013-10-21 20:37:00,37.2,36.0,29.71,SW,215,2.0,16.0,95,0.02,,,0.01,0.0,meteohub,2013-10-22 00:37:00,
2013-10-21 20:42:00,37.2,36.1,29.70,WSW,240,3.0,14.0,96,0.02,,,0.01,0.0,meteohub,2013-10-22 00:42:00,
2013-10-21 20:47:00,37.2,36.0,29.70,SW,227,5.0,10.0,95,0.02,,,0.01,0.0,meteohub,2013-10-22 00:47:00,
2013-10-21 20:52:00,37.2,36.0,29.70,WSW,248,7.0,10.0,95,0.02,,,0.02,0.0,meteohub,2013-10-22 00:52:00,
2013-10-21 20:57:00,37.2,36.0,29.70,West,270,2.0,14.0,95,0.02,,,0.02,0.0,meteohub,2013-10-22 00:57:00,
2013-10-21 21:02:00,37.0,35.8,29.70,WSW,254,2.0,14.0,95,0.02,,,0.02,0.0,meteohub,2013-10-22 01:02:00,
2013-10-21 21:07:00,37.0,35.8,29.70,SW,231,7.0,14.0,95,0.02,,,0.02,0.0,meteohub,2013-10-22 01:07:00,
2013-10-21 21:12:00,37.0,35.8,29.70,West,273,1.0,9.0,95,0.02,,,0.02,0.0,meteohub,2013-10-22 01:12:00,
2013-10-21 21:17:00,37.0,35.8,29.70,West,261,1.0,9.0,95,0.01,,,0.02,0.0,meteohub,2013-10-22 01:17:00,
2013-10-21 21:22:00,36.9,35.6,29.70,WSW,249,1.0,9.0,95,0.01,,,0.02,0.0,meteohub,2013-10-22 01:22:00,
2013-10-21 21:27:00,36.9,35.8,29.70,SW,232,1.0,5.0,96,0.01,,,0.02,0.0,meteohub,2013-10-22 01:27:00,
2013-10-21 21:32:00,36.9,35.8,29.70,WSW,244,8.0,8.0,96,0.01,,,0.02,0.0,meteohub,2013-10-22 01:32:00,
2013-10-21 21:36:00,36.9,35.8,29.70,West,269,2.0,8.0,96,0.01,,,0.02,0.0,meteohub,2013-10-22 01:36:00,
2013-10-21 21:42:00,36.9,35.8,29.70,West,274,1.0,10.0,96,0.01,,,0.02,0.0,meteohub,2013-10-22 01:42:00,
2013-10-21 21:47:00,36.9,35.8,29.70,WSW,248,1.0,10.0,96,0.00,,,0.02,0.0,meteohub,2013-10-22 01:47:00,
2013-10-21 21:52:00,36.9,35.8,29.71,SW,234,0.0,7.0,96,0.00,,,0.02,0.0,meteohub,2013-10-22 01:52:00,
2013-10-21 21:54:00,36.9,35.8,29.71,WSW,242,1.0,7.0,96,0.00,,,0.02,0.0,meteohub,2013-10-22 01:54:00,
2013-10-21 21:59:00,36.5,35.4,29.70,WNW,289,1.0,5.0,96,0.01,,,0.03,0.0,meteohub,2013-10-22 01:59:00,
2013-10-21 22:04:00,36.1,35.1,29.70,SW,232,0.0,5.0,96,0.01,,,0.03,0.0,meteohub,2013-10-22 02:04:00,
2013-10-21 22:09:00,35.8,34.5,29.71,West,280,1.0,7.0,95,0.01,,,0.03,0.0,meteohub,2013-10-22 02:09:00,
2013-10-21 22:14:00,35.2,34.0,29.71,SW,218,2.0,7.0,95,0.01,,,0.03,0.0,meteohub,2013-10-22 02:14:00,
2013-10-21 22:19:00,34.5,33.3,29.70,SSW,204,6.0,7.0,95,0.01,,,0.03,0.0,meteohub,2013-10-22 02:19:00,
2013-10-21 22:24:00,34.3,33.3,29.70,SSW,211,1.0,6.0,96,0.01,,,0.03,0.0,meteohub,2013-10-22 02:24:00,
2013-10-21 22:29:00,34.2,33.1,29.70,SW,227,2.0,6.0,96,0.01,,,0.03,0.0,meteohub,2013-10-22 02:29:00,
2013-10-21 22:34:00,34.2,33.1,29.70,West,261,0.0,6.0,96,0.01,,,0.03,0.0,meteohub,2013-10-22 02:34:00,
2013-10-21 22:39:00,34.2,33.4,29.70,WSW,248,3.0,5.0,97,0.01,,,0.03,0.0,meteohub,2013-10-22 02:39:00,
2013-10-21 22:44:00,34.2,33.4,29.70,SW,234,3.0,5.0,97,0.01,,,0.03,0.0,meteohub,2013-10-22 02:44:00,
2013-10-21 22:49:00,34.3,33.6,29.70,WSW,246,1.0,5.0,97,0.01,,,0.03,0.0,meteohub,2013-10-22 02:49:00,
2013-10-21 22:54:00,34.3,33.6,29.70,WSW,241,0.0,5.0,97,0.01,,,0.03,0.0,meteohub,2013-10-22 02:54:00,
2013-10-21 22:59:00,34.3,33.6,29.70,WSW,241,0.0,5.0,97,0.00,,,0.03,0.0,meteohub,2013-10-22 02:59:00,
2013-10-21 23:04:00,34.3,33.6,29.69,SW,228,0.0,5.0,97,0.00,,,0.03,0.0,meteohub,2013-10-22 03:04:00,
2013-10-21 23:09:00,34.3,33.6,29.69,SW,228,2.0,5.0,97,0.00,,,0.03,0.0,meteohub,2013-10-22 03:09:00,
2013-10-21 23:14:00,34.3,33.8,29.69,SW,229,0.0,3.0,98,0.00,,,0.03,0.0,meteohub,2013-10-22 03:14:00,
2013-10-21 23:19:00,34.3,33.8,29.69,SSW,212,0.0,3.0,98,0.00,,,0.03,0.0,meteohub,2013-10-22 03:19:00,
2013-10-21 23:24:00,34.5,34.0,29.69,SW,231,0.0,3.0,98,0.00,,,0.03,0.0,meteohub,2013-10-22 03:24:00,
2013-10-21 23:29:00,34.5,34.0,29.69,SSW,213,1.0,3.0,98,0.00,,,0.03,0.0,meteohub,2013-10-22 03:29:00,
2013-10-21 23:34:00,34.3,33.8,29.69,SW,232,0.0,4.0,98,0.00,,,0.03,0.0,meteohub,2013-10-22 03:34:00,
2013-10-21 23:39:00,34.2,33.6,29.69,SW,233,0.0,5.0,98,0.00,,,0.03,0.0,meteohub,2013-10-22 03:39:00,
2013-10-21 23:44:00,34.0,33.3,29.68,SW,223,1.0,5.0,97,0.01,,,0.04,0.0,meteohub,2013-10-22 03:44:00,
2013-10-21 23:49:00,33.6,32.9,29.68,WSW,240,5.0,5.0,97,0.01,,,0.04,0.0,meteohub,2013-10-22 03:49:00,
2013-10-21 23:54:00,33.6,32.9,29.68,SSW,204,3.0,3.0,97,0.01,,,0.04,0.0,meteohub,2013-10-22 03:54:00,
2013-10-21 23:59:00,33.6,32.9,29.68,SW,236,1.0,6.0,97,0.01,,,0.04,0.0,meteohub,2013-10-22 03:59:00,